DELTA 1 DEB, 10747

Orbit data source: Space-Track

DELTA 1 DEB, 10747 is space debris in SSO originally from a launch on Thu, 29 Jul 1976 UTC launched from the Air Force Western Test Range (AFWTR). Debris objects in space refer to the collection of defunct objects orbiting the Earth. Examples of debris include non-operational satellites, rocket bodies, and fragments generated from explosions, collisions, or faulty payload assembly.

Loading next visibility...
Identifier
10747, 1976-077AU
Orbit
SSO
Country
Flag of USUS
Related business
Manufacturer
Unknown
Mission
Spacecraft
Bus & Motor
Unknown
Mass
Unknown
Launch date (UTC)
1976-07-29 (50 years ago)
Launch vehicle
Unknown
Launch site
Air Force Western Test Range (AFWTR)
Object type
Payload
Rocket body
Debris
Shape & HBR
Unknown shape, 0.1 m
Radar Cross Section
Medium (>0.1 m² and <1 m²)

Expand to show TLE details & history
Last TLE update: 19 hours ago

TLE from 19 hours ago
0 DELTA 1 DEB
1 10747U 76077AU  26170.90196465  .00002992  00000-0  35780-2 0  9999
2 10747 101.0877 164.0962 0143842  35.5247 354.5407 13.63827694408707
Epoch: 2026-06-19T21:38Z
TLE epoch observation values (Epoch: 2026-06-19T21:38:49.745Z)
Latitude
29.34275°
Longitude
-75.02684°
Altitude
919.352 km
Speed
7.448 km/s
True Right ascension
10h 31m 13s
True Declination
29° 11' 58"
Sunlit
Object was in daylight at epoch
Visualization orbit readout
Latitude
Unknown
Longitude
Unknown
Altitude
Unknown
Speed
Unknown
Apparent Right ascension
Unknown
Apparent Declination
Unknown
Sunlit
N/A
Visualization observer readout
Local Sidereal Time
03:12:12
Azimuth
Unknown
Elevation
Unknown
Doppler factor
Unknown
Orbital elements
Apogee altitude
1,125.577 km
Perigee altitude
912.768 km
Semi-major axis
7,397.31 km
Eccentricity
0.01438
Inclination
101.0877°
RAAN
164.0962°
Arg. of periapsis
35.5247°
True anomaly
354.38103°
Mean anomaly
354.5407°
Eccentric anomaly
354.46115°
Mean motion
3.4114 °/min
Orbital period
105.53 mins
BSTAR
0.003578
Loading maneuver chart data...
Computing Atmospheric mass density...
Loading historical data...
Loading historical data...
Loading historical data...
Loading historical data...
Loading historical data...
Loading historical data...
Loading historical data...

Documentation

Showing up to 5 results
|